Weather observations for the past three days for
Daniel K Inouye International Airport
Metric (Imperial)
Date Time (hst) Wind (kph) Vis. (km) Weather Sky Cond. Temperature (ºC) Relative Humidity Wind Chill (°C) Heat Index (°C) Pressure Precipitation (cm)
Air Dwpt 6 hour altimeter (cm) sea level (mb) 1 hr 3 hr 6 hr
Max. Min.
02 11:53 NE 24 G 44 16.09 Partly Cloudy FEW023 SCT047 SCT070 30 22.2 63% 33 76.07 1014.0
02 10:53 NE 26 G 41 16.09 Mostly Cloudy FEW025 SCT044 BKN055 29.4 22.8 68% 33 76.1 1014.5 0.38
02 09:53 NE 11 16.09 Mostly Cloudy FEW022 SCT033 BKN050 26.7 23.3 82% 29 76.12 1014.8 0.08
02 08:53 E 6 4.83 Rain Fog/Mist FEW022 BKN038 OVC055 25 23.3 90% 26 76.12 1014.9 0.3
02 07:53 Calm 4.83 Rain Fog/Mist FEW013 BKN027 OVC034 25 23.3 26.7 24.4 90% 26 76.12 1014.6 0.05
02 06:53 N 13 11.27 Light Rain FEW013 BKN027 24.4 23.3 94% 24 76.07 1014.0 0.05
02 05:53 NW 9 16.09 Overcast FEW010 BKN025 OVC040 25 23.3 90% 26 76.02 1013.5
02 04:53 Calm 16.09 Overcast SCT025 OVC035 25.6 22.8 85% 27 76 1013.2
02 03:53 NE 7 16.09 Overcast SCT025 BKN040 OVC060 25.6 22.8 85% 27 76 1013.3
02 02:53 N 9 16.09 Mostly Cloudy BKN025 BKN035 26.7 21.7 74% 29 76 1013.2
02 01:53 NE 11 16.09 Mostly Cloudy SCT025 BKN035 26.1 21.7 27.2 26.1 77% 28 76.05 1013.7
02 00:53 NE 11 16.09 Mostly Cloudy FEW025 SCT035 BKN045 26.1 21.7 77% 28 76.07 1014.3
01 23:53 NE 24 16.09 Light Rain FEW020 SCT040 26.7 21.7 74% 29 76.1 1014.5
01 22:53 E 20 16.09 Partly Cloudy FEW025 SCT045 26.7 21.1 71% 28 76.15 1015.1
01 21:53 NE 24 16.09 Partly Cloudy FEW020 SCT036 27.2 21.1 69% 29 76.15 1015.3
01 20:53 NE 11 16.09 Partly Cloudy FEW020 SCT029 SCT038 26.1 21.1 74% 28 76.12 1014.8
01 19:53 NE 19 16.09 Partly Cloudy FEW020 FEW029 SCT039 27.2 21.1 31.7 27.2 69% 29 76.1 1014.5
01 18:53 E 22 G 31 16.09 Partly Cloudy FEW020 FEW030 SCT039 27.2 21.1 69% 29 76.07 1014.0
01 17:53 E 17 16.09 Mostly Cloudy FEW020 SCT030 BKN039 27.8 21.1 67% 30 76.05 1013.7
01 16:53 NE 33 G 44 16.09 Mostly Cloudy and Breezy FEW022 BKN038 28.9 21.1 63% 31 76.05 1013.8
01 15:53 NE 24 G 44 16.09 Partly Cloudy FEW022 SCT034 30 20.6 57% 32 76.02 1013.5
01 14:53 NE 24 G 46 16.09 Partly Cloudy FEW025 SCT034 30.6 20.6 55% 33 76.05 1013.7
01 13:53 NE 22 G 39 16.09 Partly Cloudy FEW025 SCT034 31.1 20.6 31.1 26.7 54% 34 76.05 1013.9
01 12:53 NE 26 G 41 16.09 Partly Cloudy FEW025 SCT040 30.6 20.6 55% 33 76.12 1014.7
01 11:53 NE 24 G 46 16.09 Partly Cloudy FEW025 SCT039 30.6 20 53% 33 76.15 1015.3
01 10:53 NE 20 G 35 16.09 A Few Clouds FEW025 FEW040 30 20 55% 32 76.2 1015.7
01 09:53 NE 28 G 37 16.09 A Few Clouds FEW025 FEW040 29.4 20 57% 31 76.2 1015.9
01 08:53 E 13 16.09 Mostly Cloudy FEW025 SCT065 BKN075 27.2 20 65% 29 76.23 1016.1
01 07:53 Vrbl 11 16.09 Partly Cloudy FEW025 SCT065 26.7 20 26.7 25 67% 28 76.2 1015.7
01 06:53 NE 15 16.09 A Few Clouds FEW025 FEW040 26.1 20 69% 27 76.17 1015.6
01 05:53 N 17 G 28 16.09 A Few Clouds FEW025 FEW070 FEW180 25.6 19.4 69% 27 76.15 1015.2
01 04:53 NE 9 16.09 A Few Clouds FEW025 FEW070 25.6 19.4 69% 27 76.12 1014.9
01 03:53 Vrbl 6 16.09 A Few Clouds FEW025 FEW070 25.6 18.9 67% 27 76.1 1014.5
01 02:53 NE 20 G 31 16.09 Partly Cloudy FEW025 SCT070 25.6 19.4 69% 27 76.1 1014.4
01 01:53 Vrbl 11 G 30 16.09 A Few Clouds FEW025 FEW065 FEW180 26.1 18.9 27.2 26.1 65% 27 76.15 1015.1
01 00:53 NE 19 G 28 16.09 A Few Clouds FEW025 FEW065 FEW180 26.1 18.9 65% 27 76.2 1015.8
31 23:53 NE 17 G 33 16.09 A Few Clouds FEW030 FEW065 26.1 18.9 65% 27 76.23 1016.0
31 22:53 E 24 G 39 16.09 A Few Clouds FEW030 FEW065 26.7 18.9 62% 28 76.25 1016.5
31 21:53 NE 26 16.09 Mostly Cloudy FEW024 FEW038 BKN060 26.7 18.9 62% 28 76.25 1016.6
31 20:53 NE 20 16.09 Mostly Cloudy FEW024 FEW038 BKN060 27.2 19.4 62% 29 76.2 1015.9
31 19:53 NE 30 G 39 16.09 A Few Clouds FEW025 FEW038 27.2 19.4 31.1 27.2 62% 29 76.15 1015.3
31 18:53 E 26 G 39 16.09 A Few Clouds FEW025 FEW040 27.2 19.4 62% 29 76.12 1014.7
31 17:53 E 31 G 50 16.09 A Few Clouds FEW025 FEW042 28.3 19.4 59% 30 76.07 1014.2
31 16:53 NE 24 G 41 16.09 A Few Clouds FEW025 FEW045 29.4 19.4 55% 31 76.05 1013.9
31 15:53 NE 31 G 43 16.09 A Few Clouds FEW025 FEW045 30.6 18.9 50% 32 76.05 1013.7
31 14:53 NE 28 G 43 16.09 A Few Clouds FEW027 FEW045 31.1 19.4 50% 33 76.07 1014.0
31 13:53 NE 22 G 43 16.09 A Few Clouds FEW030 FEW045 30.6 18.9 31.1 27.2 50% 32 76.1 1014.5
31 12:53 NE 26 G 44 16.09 A Few Clouds FEW030 FEW045 31.1 18.9 48% 32 76.17 1015.4
31 11:53 E 30 G 46 16.09 A Few Clouds FEW025 FEW045 31.1 18.9 48% 32 76.23 1016.2
31 10:53 E 30 G 54 16.09 Partly Cloudy FEW025 SCT050 30 19.4 53% 32 76.25 1016.5
31 09:53 E 33 G 50 16.09 A Few Clouds and Breezy FEW050 28.9 19.4 57% 30 76.28 1016.8
31 08:53 NE 26 16.09 Partly Cloudy FEW025 SCT045 SCT055 28.3 18.9 57% 30 76.25 1016.7
31 07:53 E 26 16.09 Partly Cloudy FEW025 SCT050 SCT070 27.2 19.4 27.2 24.4 62% 29 76.23 1016.3
31 06:53 E 15 16.09 Partly Cloudy FEW025 SCT055 SCT070 26.1 19.4 67% 27 76.2 1015.9
31 05:53 NE 17 G 35 16.09 Mostly Cloudy FEW025 FEW045 BKN060 26.1 19.4 67% 27 76.17 1015.5
31 04:53 NE 19 16.09 Partly Cloudy FEW025 FEW040 SCT065 25.6 20 71% 27 76.15 1015.2
31 03:53 NE 22 16.09 Light Rain FEW025 SCT040 OVC060 25 20 74% 26 76.15 1015.0
31 02:53 E 6 16.09 Overcast FEW025 SCT040 OVC065 25 20 74% 26 76.17 1015.6
31 01:53 E 19 16.09 Overcast FEW025 BKN045 OVC070 26.1 20 27.2 24.4 69% 27 76.23 1016.1
31 00:53 NE 20 G 31 16.09 Mostly Cloudy FEW025 SCT035 BKN075 26.1 19.4 67% 27 76.28 1016.7
30 23:53 NE 19 16.09 Light Rain FEW025 BKN035 24.4 20.6 79% 25 76.33 1017.5
30 22:53 E 30 G 43 16.09 Light Rain FEW022 SCT034 BKN041 25 21.1 79% 26 76.38 1018.0
30 21:53 NE 19 16.09 Mostly Cloudy FEW022 SCT034 BKN041 25 21.1 79% 26 76.33 1017.5
30 20:53 E 17 16.09 Light Rain FEW020 SCT042 BKN060 26.1 21.1 74% 28 76.3 1017.1
30 19:53 NE 20 16.09 Mostly Cloudy FEW020 BKN035 27.2 20.6 30.6 26.7 67% 29 76.25 1016.6
30 18:53 E 31 16.09 A Few Clouds FEW020 FEW038 27.2 20 65% 29 76.2 1015.9
30 17:53 E 31 16.09 A Few Clouds FEW023 FEW038 28.9 20 59% 31 76.15 1015.1
30 16:53 E 19 G 41 16.09 A Few Clouds FEW025 FEW038 28.9 20 59% 31 76.12 1014.9
30 15:53 E 31 G 46 16.09 A Few Clouds FEW027 FEW038 30 19.4 53% 32 76.15 1015.0
30 14:53 NE 26 G 44 16.09 A Few Clouds FEW027 FEW040 30.6 19.4 51% 32 76.17 1015.4
30 13:53 NE 30 G 41 16.09 A Few Clouds FEW027 FEW037 30 19.4 30.6 26.7 53% 32 76.2 1015.8
30 12:53 NE 22 G 41 16.09 Partly Cloudy FEW027 SCT037 SCT049 28.9 20.6 61% 31 76.28 1016.9
Date Time (hst) Wind (kph) Vis. (km) Weather Sky Cond. Air Dwpt Max. Min. Relative Humidity Wind Chill (°C) Heat Index (°C) altimeter (cm) sea level (mb) 1 hr 3 hr 6 hr
6 hour
Temperature (ºC) Pressure Precipitation (cm)